Погода в Ново-Булгарах

Россия / Астраханская область     46°09′37″N   47°49′42″E
темп.,
°C
ветер,
м/с
пор.,
м/с
влажн.,
%
обл.,
%
осадки,
мм/ч
давл.,
гПа
погр.,
м
13 мая, чт
чт1301:00+16юв34600 0.0 1015121
04:00+15ю33640 0.0 101564
07:00+16ю23600 0.0 1015162
10:00+21ююв34450 0.0 1015765
13:00+25ю34360 0.0 10161035
16:00+28ююв55320 0.0 10151112
19:00+24ююв66390 0.0 1016620
22:00+20юв36560 0.0 1017182
14 мая, пт
пт1401:00+18вюв48630 0.0 1017153
04:00+19вюв46510 0.0 101681
07:00+21вюв512510 0.0 1016271
10:00+28ююв913255 0.0 1017730
13:00+31ююв911165 0.0 10181048
16:00+30юв912165 0.0 10171084
19:00+26юв712240 0.0 1017544
22:00+22вюв511320 0.0 1017184
15 мая, сб
сб1501:00+20в510444 0.0 1016152
04:00+19вюв59460 0.0 1016119
07:00+22вюв715420 0.0 1017326
10:00+29юв912250 0.0 10171002
13:00+31юв911200 0.0 10172151
16:00+30юв910210 0.0 10161952
19:00+27юв69290 0.0 1016615
22:00+22вюв48425 0.0 1017142
16 мая, вс
вс1601:00+21в48401 0.0 1015116
04:00+21в59400 0.0 1014134
07:00+23вюв614480 0.0 1014340
10:00+29юв912260 0.0 1014888
13:00+32юв1112200 0.0 10142313
16:00+31вюв99190 0.0 10131702
19:00+28вюв710260 0.0 1012810
22:00+23в612390 0.0 1013247
17 мая, пн
пн1701:00+21в612430 0.0 1012216
04:00+20в510490 0.0 1011135
07:00+23вюв714390 0.0 1012366
10:00+29юв912190 0.0 10121128
13:00+31юв1012140 0.0 10112063
16:00+31юв1013140 0.0 10112120
19:00+29вюв710215 0.0 1011713
22:00+23в611395 0.0 1011203